Location: Seasalter
(51.3333°N, 1.0167°E)
Time: 19:20:25
(UTC+00:00)

Cosmos 1092 Rocket - Pass Details

Date: 26 September 2023
Orbit: 953 x 995 km, 82.9° (Epoch: 08 December)

Event Time Altitude Azimuth Distance (km) Brightness Sun altitude
Exits shadow 03:04:07 53° 267° (W) 1,212 4.1 -25.1°
Maximum altitude 03:04:40 55° 286° (WNW) 1,192 4.2 -25.0°
Drops below altitude 10° 03:10:55 10° 3° (N) 2,775 6.8 -24.2°
Sets 03:13:32 0° 8° (N) 3,727 7.6 -23.8°
